Theta_e
331 332 331 331 331 331 332 332 332 333 333 332 332 330 329 330 329 329 329 328 326 325 325 325 323 323 324 325 324 326 331 331 331 333 334 335 336 339 341 341 340 341 339 338 337 337 335 335 334 334 333 332 332 331 331 330 332 332 336 336 334 332 330 330 329 329 329 329 329 327 327 327 327 327 326 326 326 325 325 325 325 325 324 324 324
330 331 330 329 330 331 334 333 333 333 333 332 331 329 329 328 328 329 330 329 328 327 328 325 324 323 322 322 323 326 331 331 331 332 334 335 335 337 341 340 339 340 339 338 338 337 336 335 334 334 334 333 332 331 331 330 330 331 335 337 335 332 331 330 329 329 329 329 328 328 327 327 327 327 326 326 326 325 325 325 325 324 324 324 323
331 330 329 328 328 328 331 332 332 332 330 330 330 329 329 329 329 329 328 328 330 329 328 325 323 322 322 323 322 323 330 331 331 332 334 335 335 336 339 341 339 338 338 338 339 337 337 336 335 335 334 334 334 332 331 330 330 331 334 336 335 333 332 331 330 329 329 328 328 328 327 327 327 327 326 326 325 325 325 324 324 323 323 323 323
331 330 329 329 328 327 329 329 329 330 329 330 330 329 328 330 331 330 329 329 327 327 327 326 322 322 321 322 321 320 324 330 331 332 333 334 335 336 337 338 339 337 338 337 337 339 338 337 336 336 334 333 334 333 332 332 331 331 335 335 335 334 333 332 330 329 328 328 328 328 327 327 327 327 325 325 324 324 324 324 324 324 323 323 323
326 328 330 329 329 327 328 329 329 330 328 328 329 328 327 328 328 330 328 327 327 327 328 325 322 321 321 323 325 325 320 329 330 331 332 334 334 336 336 336 335 337 336 338 337 338 338 337 336 336 336 334 334 334 333 333 332 331 335 335 334 334 334 333 331 330 329 328 328 328 328 327 327 326 325 325 324 324 324 324 323 323 323 323 323
327 328 329 327 328 329 329 331 332 330 328 326 326 327 326 326 327 327 329 326 325 326 325 325 322 320 321 324 326 326 326 324 327 330 330 332 334 335 335 335 334 335 335 340 338 337 337 339 336 337 336 335 334 334 333 333 332 331 332 332 332 333 335 333 332 331 329 328 328 328 327 327 327 326 326 325 324 324 324 323 323 323 323 323 322
329 327 327 328 329 329 330 330 331 330 328 326 326 326 325 325 327 325 323 324 325 323 324 321 318 319 322 324 325 327 327 327 327 326 331 329 330 332 334 334 334 335 335 335 339 337 336 337 338 338 337 336 335 335 335 334 333 332 333 331 330 331 334 334 333 332 330 329 328 328 327 327 327 326 326 325 325 324 324 323 323 323 322 322 322
329 328 327 327 328 328 331 330 329 330 329 329 325 323 323 324 325 325 322 324 325 324 323 323 322 324 323 322 324 326 326 326 327 327 326 331 329 330 331 331 332 333 336 333 333 336 336 336 336 338 338 336 336 336 336 335 334 332 333 332 331 330 331 334 333 333 332 331 329 328 328 327 327 326 326 325 325 324 323 323 323 322 322 322 322
328 329 328 327 328 327 330 330 329 328 331 330 327 327 325 325 323 325 325 322 325 326 323 324 324 326 324 322 323 324 326 326 326 326 327 328 329 329 330 330 332 337 333 330 331 333 336 336 337 336 336 337 336 336 336 336 336 334 332 333 333 332 331 332 334 334 333 332 331 329 329 328 326 326 326 326 325 325 324 323 322 322 322 321 321
327 329 328 328 328 327 327 328 327 325 326 329 329 329 327 325 324 326 327 325 324 323 321 322 327 328 323 326 323 323 324 325 326 327 325 325 325 328 329 330 332 332 332 332 332 332 333 335 337 335 336 335 336 336 337 337 337 335 334 333 334 333 332 332 333 334 334 333 333 331 329 328 326 326 326 326 325 325 324 324 323 322 322 321 321
327 329 327 328 327 325 325 327 326 325 328 328 326 327 327 325 323 324 326 327 324 323 323 323 325 325 325 325 326 322 323 323 323 323 323 323 325 328 330 329 330 331 331 331 332 333 332 332 334 334 334 335 335 338 338 338 337 336 336 334 335 334 334 334 333 333 334 334 333 331 330 328 327 327 326 327 326 325 325 324 324 323 322 322 321
327 326 325 326 325 324 324 326 326 326 327 326 324 325 325 325 324 324 324 325 326 324 325 323 322 321 323 322 324 323 324 326 324 323 323 323 323 324 326 328 329 329 330 331 331 332 332 331 333 333 333 334 335 335 337 337 336 338 337 336 336 335 334 335 334 334 334 334 334 332 331 329 328 328 327 327 327 326 326 324 324 323 323 322 321
327 324 323 328 323 323 325 324 325 326 324 323 323 324 324 324 323 323 323 325 326 327 325 323 321 319 320 320 320 322 325 326 325 326 324 324 324 324 326 325 326 328 329 330 330 331 331 331 332 332 333 333 333 333 334 333 334 337 338 337 337 337 336 336 335 336 334 334 334 335 332 331 329 329 328 328 328 327 326 325 324 324 323 322 322
321 321 323 324 322 322 323 325 327 326 324 324 323 325 322 321 321 320 324 324 323 324 323 319 317 315 316 314 316 319 324 326 325 326 326 325 325 327 327 326 326 326 329 329 329 329 330 331 331 332 332 332 332 332 332 333 333 336 338 339 338 338 338 338 338 336 335 334 334 335 333 332 330 330 329 329 328 327 326 325 325 324 324 323 322
319 320 321 322 321 320 321 322 324 325 321 320 320 321 321 321 320 320 321 323 324 327 324 320 315 317 315 313 310 311 314 317 320 324 326 325 326 328 328 328 328 328 328 328 329 329 330 330 330 331 332 332 331 332 331 332 332 333 336 338 339 339 338 339 340 338 336 335 334 335 334 333 332 331 330 330 329 328 327 326 325 324 324 323 323
317 318 318 318 317 317 318 321 322 322 321 319 318 319 320 322 322 321 320 320 323 323 325 321 320 317 314 312 312 310 307 310 314 321 326 327 328 329 329 329 327 328 328 327 327 329 331 330 330 330 331 331 331 331 332 331 332 331 330 334 336 337 339 339 340 341 338 336 335 335 335 335 333 332 332 331 330 329 329 327 325 325 325 324 323
318 318 319 316 316 316 316 315 317 320 321 320 317 319 319 320 321 321 318 316 319 323 326 325 322 323 317 314 309 307 307 310 315 317 322 323 327 330 332 330 329 327 327 328 329 328 329 330 330 329 330 330 330 331 331 331 331 333 333 333 334 335 338 339 341 341 340 338 337 337 336 336 335 333 333 331 331 330 329 328 327 325 324 324 324
316 317 318 316 313 314 314 315 315 316 316 315 314 314 314 317 319 319 318 317 318 318 321 324 324 323 320 316 313 310 310 314 312 307 316 319 321 325 327 327 326 326 326 327 329 330 330 329 328 328 329 329 330 330 331 331 332 331 332 332 331 330 328 333 340 342 341 339 338 338 337 337 336 334 333 332 331 331 330 329 328 327 326 325 324
315 315 314 314 312 313 314 314 313 314 317 314 314 314 315 317 319 319 318 319 316 315 319 320 320 319 320 320 320 319 316 313 310 309 309 313 316 318 320 326 326 329 328 327 328 328 328 329 329 329 329 330 330 330 331 331 332 331 333 331 329 327 325 323 326 337 340 340 338 338 338 336 336 335 334 333 332 331 331 330 329 328 327 326 325
313 313 313 314 313 311 312 312 313 314 315 312 311 312 314 315 315 313 314 316 316 317 317 318 313 315 321 317 319 320 318 318 316 311 307 309 312 314 319 321 322 324 328 327 329 328 327 328 330 330 329 331 329 329 329 330 330 331 331 329 327 327 324 323 320 320 327 337 340 339 338 336 336 336 335 334 333 332 331 331 331 329 328 327 326
313 311 311 314 316 312 310 310 311 312 315 314 312 313 312 311 312 312 311 312 313 312 312 311 312 315 319 318 319 317 316 317 318 317 311 306 307 310 313 316 317 320 323 326 329 329 329 329 330 331 328 328 328 329 329 327 327 329 330 327 327 325 324 322 318 319 317 324 333 338 340 338 338 338 336 335 333 333 332 331 331 330 330 328 327
310 311 311 312 311 313 312 311 310 312 313 310 310 311 311 311 310 311 311 311 310 310 309 307 308 309 314 316 314 312 315 315 316 316 315 312 309 310 310 310 310 313 318 322 323 326 328 328 329 327 327 328 330 328 329 329 329 329 328 326 325 326 323 320 315 314 315 320 328 333 338 340 337 337 336 335 335 334 333 333 333 332 332 330 328
310 310 310 311 313 315 313 313 314 316 313 310 309 311 310 311 311 311 310 310 309 309 309 307 307 308 309 309 309 309 308 305 305 307 308 305 303 304 305 304 307 310 312 319 321 325 326 325 324 323 325 325 327 328 328 329 328 327 326 326 324 324 321 318 316 314 314 321 327 332 334 335 337 336 337 336 336 336 335 334 334 334 333 332 331
309 309 309 310 312 311 312 310 311 310 311 311 311 312 312 311 310 309 308 308 309 310 308 307 306 306 306 306 307 307 307 306 307 306 306 306 305 303 303 304 304 304 307 316 318 321 320 320 320 320 320 321 323 326 328 329 328 327 326 325 323 320 319 320 318 318 315 319 323 327 332 335 337 337 336 337 336 337 336 335 334 334 333 333 333
308 309 308 309 310 309 309 309 309 311 310 311 310 311 310 310 310 308 308 308 307 307 307 305 305 306 305 305 306 306 306 306 307 306 305 304 303 300 303 304 303 303 304 306 305 310 312 318 317 311 310 310 312 315 324 326 326 325 324 325 320 320 318 317 316 314 313 311 315 324 329 333 335 336 337 336 335 335 335 333 328 325 325 328 331
309 309 310 310 310 311 309 308 308 309 310 310 310 310 310 310 309 309 308 307 307 306 306 305 305 304 304 304 305 305 305 306 305 306 305 303 301 301 301 300 301 302 303 303 305 305 306 309 308 309 309 310 310 311 324 325 324 322 323 325 321 318 317 314 313 313 311 310 308 310 315 321 325 328 329 332 332 324 321 320 319 317 317 320 325
311 311 312 311 311 311 310 309 309 308 308 309 312 311 311 312 311 309 307 306 307 308 305 306 307 305 304 304 305 304 304 305 306 306 306 305 303 302 300 299 298 298 301 302 303 304 305 306 307 308 309 310 310 310 316 323 322 320 319 325 325 318 316 315 313 312 310 311 310 309 308 311 313 315 315 315 314 317 321 320 318 317 316 317 317
311 312 312 311 312 311 311 309 308 308 309 308 308 310 309 310 308 307 307 311 307 306 305 304 304 303 303 302 305 303 304 304 305 305 305 306 307 303 301 299 296 296 298 299 301 302 305 305 305 308 308 308 309 309 314 314 319 318 322 318 318 319 317 314 312 310 310 310 309 308 308 309 310 310 311 314 317 318 318 318 318 315 315 316 317
313 313 313 310 312 311 310 310 309 308 309 309 309 308 308 309 307 305 305 307 308 306 306 306 305 304 303 302 303 303 303 303 304 305 305 304 305 304 303 302 300 298 296 295 298 300 303 305 304 305 307 307 308 309 309 309 311 315 312 312 313 314 314 313 313 311 311 308 305 306 306 307 309 310 312 315 316 317 316 316 315 314 315 318 318
314 314 313 313 313 317 310 310 309 309 309 309 309 308 308 307 306 306 306 307 307 307 308 306 306 305 305 304 303 304 304 303 304 304 303 302 303 304 303 303 303 300 297 295 296 299 302 302 305 304 305 306 307 308 308 307 310 310 309 309 309 311 310 310 311 312 311 308 306 306 307 308 308 309 311 314 315 315 315 314 313 312 315 317 316
315 312 312 314 314 312 311 311 310 310 309 308 308 308 308 307 307 307 307 305 305 305 307 306 307 306 304 305 304 304 304 304 304 303 304 303 302 302 302 302 303 301 299 296 294 297 303 302 302 305 304 304 306 305 307 307 310 309 307 307 307 309 309 310 309 309 310 309 308 307 309 312 310 309 310 312 313 314 313 314 316 315 314 314 312
314 313 312 314 314 313 312 312 311 311 311 309 309 307 306 307 308 308 307 306 306 306 307 306 309 305 303 303 304 303 303 302 303 304 303 303 303 303 303 302 301 300 299 297 296 298 300 302 302 303 304 304 306 304 304 306 308 309 305 305 306 309 308 307 308 308 307 307 307 307 307 307 308 308 307 307 309 310 310 312 313 313 312 311 312
315 313 313 315 314 314 313 313 312 311 311 310 310 308 307 307 306 307 306 307 307 306 307 306 307 305 304 303 303 304 303 302 301 301 302 302 303 303 303 301 302 301 301 299 298 298 298 299 302 303 305 305 304 304 304 303 303 304 307 303 304 304 304 305 307 306 305 305 304 303 304 304 305 305 302 301 303 304 305 306 308 308 309 310 308
315 314 313 315 315 315 314 313 312 312 311 310 310 310 308 308 307 309 308 307 307 306 305 304 305 307 303 303 305 304 304 302 301 303 302 302 301 300 301 303 300 301 301 300 298 297 297 299 301 303 304 305 303 303 303 302 303 303 304 304 305 304 305 305 305 307 305 306 304 303 303 303 302 302 302 301 301 302 304 304 305 305 305 305 304
315 314 313 314 316 315 314 314 312 312 312 311 311 310 309 308 308 307 309 307 306 306 306 305 306 306 304 304 303 303 305 302 302 301 302 302 301 300 300 300 299 300 301 300 299 297 297 298 298 300 301 302 301 302 303 303 303 303 303 303 304 305 306 305 305 306 305 304 303 303 303 303 304 304 304 304 303 302 302 302 302 303 302 302 303
315 313 314 314 315 315 315 313 312 312 312 311 310 310 310 309 308 308 308 307 306 306 307 307 306 305 305 302 302 303 303 302 302 300 300 300 300 300 299 299 299 299 300 299 300 298 296 297 296 299 300 299 300 301 303 304 303 303 303 303 303 303 303 305 305 306 306 305 304 305 306 305 304 304 304 304 304 303 303 303 303 302 302 302 302
316 315 315 314 314 314 315 315 314 313 313 313 312 312 311 310 309 309 309 309 307 307 307 308 309 306 306 304 303 304 302 302 302 300 299 299 300 299 297 297 296 296 296 297 296 296 294 293 295 296 298 298 300 301 301 300 300 301 302 301 302 302 302 303 304 306 305 306 306 306 304 303 303 303 303 303 303 303 302 302 302 302 302 303 302
316 316 315 314 315 314 314 314 315 315 315 315 315 314 313 311 310 310 310 310 309 308 307 308 309 306 306 305 304 305 303 303 301 300 300 299 299 295 294 293 293 293 293 293 295 294 294 293 293 294 294 297 297 297 299 298 298 298 298 299 299 301 300 300 301 303 305 305 305 305 304 303 304 304 304 304 303 302 302 302 302 303 302 302 302
314 314 311 313 312 313 314 315 315 316 316 316 315 315 315 315 314 312 310 310 310 309 307 308 308 307 306 306 304 305 304 303 302 301 301 301 299 296 296 294 293 292 293 293 294 293 292 292 292 293 293 295 295 293 295 296 296 296 295 295 295 297 298 298 298 301 303 303 303 302 302 302 303 303 303 304 303 303 302 301 302 302 302 301 301
313 313 313 313 313 313 314 314 314 315 315 315 314 314 314 313 314 314 313 311 310 310 309 309 308 307 307 306 305 305 305 303 303 303 302 299 298 295 296 296 295 293 292 293 292 291 291 291 290 290 290 291 291 292 295 293 294 293 295 295 293 293 295 296 297 297 301 300 300 300 301 302 301 302 302 302 303 303 302 303 304 305 304 302 301
311 312 312 312 312 312 312 312 314 314 314 314 315 314 314 314 314 313 313 312 311 310 309 309 309 309 308 307 306 304 307 309 306 305 304 301 299 296 296 297 296 292 291 291 291 290 290 290 290 290 289 290 290 290 291 291 290 290 293 293 292 293 294 295 296 297 299 297 297 297 297 299 299 299 300 301 302 303 303 303 303 304 303 301 300
308 308 309 310 311 311 311 310 311 312 313 315 313 308 309 314 314 314 314 312 311 310 309 309 309 308 308 307 307 312 310 308 303 299 297 298 300 300 296 295 296 293 291 291 290 290 291 290 289 289 290 290 289 290 290 291 292 292 292 292 292 293 293 294 295 294 297 295 295 294 295 298 298 297 298 298 300 301 301 302 302 302 301 300 299
307 307 308 307 307 309 310 309 310 311 313 315 307 302 302 304 313 313 313 312 311 310 309 308 307 307 307 307 307 310 308 305 300 295 295 295 295 295 296 297 298 295 292 291 290 290 291 291 290 289 289 289 291 291 290 292 292 292 291 292 292 293 292 290 290 293 295 295 294 292 293 295 296 296 296 297 298 299 300 300 300 300 300 299 299
307 306 307 308 308 306 307 307 308 310 311 309 303 301 300 300 304 313 312 311 310 309 309 308 308 307 306 306 307 307 303 301 299 297 296 294 293 293 293 293 293 293 295 293 292 291 290 290 289 290 289 289 290 291 291 291 292 291 292 292 292 291 291 291 290 290 293 295 292 291 292 294 295 295 295 296 297 298 300 300 300 299 299 299 299
307 307 306 306 308 307 306 306 308 310 310 305 301 300 300 299 298 304 310 311 311 309 308 308 307 306 305 305 304 304 304 307 304 299 299 298 295 294 294 294 293 292 290 290 292 294 291 289 289 289 289 289 290 291 292 293 293 291 292 291 291 291 291 290 291 292 293 293 292 290 290 292 293 293 293 295 296 297 299 299 299 299 299 299 299
305 304 303 304 305 306 306 308 309 310 309 306 301 300 299 297 296 298 308 308 309 309 309 308 306 305 304 303 303 302 303 304 302 301 300 299 298 299 297 295 294 295 293 292 290 290 293 292 290 290 291 291 291 291 293 292 291 290 290 290 290 290 290 290 292 292 293 294 291 289 289 290 291 292 291 293 296 296 297 298 298 298 298 298 298
298 299 299 299 298 300 301 302 306 307 310 303 299 298 297 297 296 296 306 307 306 306 306 305 304 303 303 303 302 301 300 300 301 300 299 297 296 297 296 296 294 293 295 296 294 291 291 290 290 290 290 290 290 291 291 290 290 291 291 290 290 290 290 290 290 290 290 291 291 289 288 290 290 291 291 293 295 294 295 297 297 297 297 298 298
296 297 298 296 297 297 297 297 299 300 296 291 292 296 299 296 294 301 301 300 299 299 299 300 301 301 301 300 299 298 298 299 298 295 297 298 296 296 295 293 292 293 293 295 293 293 292 290 290 290 290 290 292 290 291 291 290 290 291 291 289 288 288 287 287 289 289 289 291 290 288 288 289 291 291 293 293 293 294 294 296 297 297 299 298
296 296 296 295 294 294 294 294 294 292 289 291 291 295 294 293 298 300 299 299 298 297 297 299 299 300 299 299 300 300 301 299 293 291 293 295 293 293 293 291 290 288 288 291 292 291 291 291 291 291 290 290 290 291 290 291 290 290 289 286 285 286 285 284 285 286 287 288 288 290 290 289 289 290 290 292 292 292 292 293 293 296 298 298 297
298 296 294 292 293 293 291 292 292 289 288 291 293 292 293 295 298 299 297 297 297 298 298 298 299 298 300 305 302 299 296 293 290 291 291 293 290 288 287 286 286 285 286 287 290 290 291 291 290 290 290 290 290 290 291 291 291 291 286 284 286 285 285 285 284 285 286 288 289 292 289 288 289 289 289 291 290 289 292 292 292 294 296 297 297
295 293 293 292 291 291 290 290 296 289 288 291 292 293 293 295 297 297 298 297 296 293 292 291 292 293 293 295 296 295 293 291 289 290 290 291 288 287 286 285 286 286 287 285 285 286 286 287 286 287 287 289 290 288 290 291 291 292 289 287 286 285 284 285 285 285 284 285 288 290 287 288 287 288 289 289 288 288 290 291 293 292 293 295 296
Wind_Speed
5 5 4 4 4 2 3 5 3 3 3 2 3 4 3 2 2 2 1 1 1 2 2 3 4 3 4 5 5 4 5 6 5 6 6 6 6 7 11 11 11 11 12 11 11 10 10 10 9 10 10 9 9 8 8 9 8 8 10 10 9 9 8 8 8 8 8 9 9 9 9 9 9 9 9 9 9 9 9 10 10 11 10 9 10
4 4 6 6 6 7 5 6 5 4 4 4 3 4 3 2 2 1 1 0 1 2 2 3 2 2 3 3 5 5 6 7 6 6 6 6 6 5 11 11 11 11 11 11 11 10 11 11 10 10 10 9 9 9 9 8 9 7 9 12 10 9 9 8 7 8 8 8 8 9 9 9 9 9 9 9 9 9 9 9 10 10 10 9 9
5 6 6 6 3 1 1 2 4 4 3 4 3 3 2 3 3 2 1 0 1 2 2 4 4 4 2 2 3 2 6 7 6 6 6 6 6 6 7 12 11 11 11 11 10 10 11 11 11 11 10 10 10 10 10 10 8 8 8 12 12 10 9 9 8 7 7 8 8 8 9 9 9 9 9 9 9 9 9 9 9 9 9 9 9
3 3 3 3 2 1 1 0 1 1 2 3 3 2 2 1 1 1 2 0 1 2 2 2 2 2 3 5 2 4 2 3 6 7 7 6 6 6 6 7 11 10 11 10 10 10 12 11 12 11 11 11 11 10 11 10 10 9 9 10 10 11 9 9 8 8 7 7 8 8 8 9 9 9 9 9 8 8 9 8 8 9 9 8 8
3 3 3 3 1 1 1 0 1 2 1 2 3 2 1 0 0 1 0 0 1 3 2 0 1 2 4 5 4 5 2 4 3 5 7 7 6 6 6 6 5 9 11 11 10 9 12 12 12 12 12 11 12 11 11 11 11 10 10 10 9 10 10 9 9 8 8 7 8 8 8 8 9 10 9 9 9 8 8 8 8 8 8 8 8
4 4 4 3 2 3 2 2 2 3 3 2 2 2 1 0 1 1 2 1 2 3 3 1 1 2 4 3 5 5 5 2 4 4 2 4 5 6 6 5 5 5 6 11 11 10 10 11 11 12 12 12 11 11 11 11 11 10 10 9 9 8 10 10 9 9 8 8 8 8 8 8 9 9 9 9 9 8 8 8 8 8 8 8 8
4 4 3 3 2 3 3 2 2 3 3 1 1 1 1 1 0 1 2 2 2 2 1 1 2 3 2 4 4 4 6 4 2 4 5 3 2 2 4 5 5 5 5 5 8 11 10 10 11 10 12 12 12 12 12 12 11 12 11 11 10 9 9 11 10 9 9 8 7 7 7 8 8 8 9 9 9 9 8 8 8 8 8 7 7
5 5 5 4 4 3 3 3 2 3 3 2 1 1 0 0 1 1 1 2 0 1 2 4 3 3 2 3 2 4 5 4 3 4 3 5 4 3 3 2 2 4 5 5 5 7 12 10 11 9 11 12 13 13 13 12 12 12 11 11 11 10 9 11 11 10 9 9 8 8 7 7 8 8 8 9 9 9 8 8 8 8 8 7 8
3 5 5 5 4 4 4 4 3 4 4 3 2 1 2 1 0 0 1 1 0 0 2 3 3 2 2 3 2 3 5 5 3 3 4 4 5 4 4 3 2 4 2 2 3 4 8 11 11 10 10 11 12 13 13 12 13 13 12 11 12 11 11 10 12 12 11 10 9 8 8 8 7 8 8 8 8 9 9 9 8 8 8 8 7
2 2 4 4 4 4 4 3 3 2 3 4 3 3 2 2 2 0 2 1 1 1 1 1 1 2 2 3 1 2 3 4 3 3 4 4 2 4 5 5 6 5 5 4 3 4 4 8 11 10 11 11 12 13 13 12 12 12 13 12 12 12 11 11 11 11 12 12 11 10 9 9 8 8 9 9 9 9 9 9 9 9 8 8 8
3 4 4 4 3 3 4 4 3 2 4 4 4 3 2 1 2 1 0 0 2 1 2 2 2 2 2 1 0 1 2 3 4 3 4 4 4 3 3 5 5 6 7 6 6 4 5 4 5 5 8 13 12 12 12 10 11 12 12 13 12 12 12 13 12 11 12 13 13 11 10 10 10 10 9 10 10 10 10 10 10 10 9 8 8
4 4 4 3 3 3 4 4 4 4 4 4 4 4 5 4 4 3 1 1 1 0 0 2 2 2 0 1 1 1 2 1 3 2 2 2 2 3 3 4 5 6 6 6 7 7 6 5 5 5 5 9 13 11 10 9 8 10 13 13 13 13 13 13 13 13 12 12 14 13 12 11 11 11 11 10 11 11 11 10 10 10 10 10 9
3 3 3 3 3 4 3 3 4 4 4 4 4 4 4 4 3 1 2 1 1 1 1 1 1 0 0 1 1 1 1 2 1 1 2 1 1 2 2 1 4 5 7 6 6 6 6 6 6 5 5 5 7 10 10 10 9 10 14 15 14 14 14 13 13 14 14 14 14 14 13 13 12 12 11 11 11 11 11 11 11 11 10 10 10
3 4 3 3 3 3 4 3 3 3 3 3 3 3 2 1 2 2 1 1 0 0 0 1 1 0 0 1 2 2 1 1 1 1 2 3 3 1 2 3 2 3 4 5 5 5 6 6 6 6 5 4 4 5 6 7 9 11 12 14 16 16 15 16 14 14 15 15 14 15 13 14 13 13 12 11 11 11 11 11 12 12 12 11 11
4 4 4 3 2 2 2 3 2 1 1 3 3 3 2 3 3 3 2 1 1 0 1 2 1 1 1 3 2 2 3 2 0 1 1 0 1 3 1 0 0 3 1 5 6 6 6 6 6 7 6 6 5 5 6 6 7 9 11 11 12 14 15 15 16 15 15 15 14 14 13 14 14 13 13 13 12 12 12 12 12 12 12 12 12
4 4 4 4 3 3 2 3 3 3 3 2 2 2 2 2 2 1 3 3 2 1 1 2 1 3 1 0 0 1 1 1 1 1 1 2 2 2 2 2 1 2 3 1 4 6 6 6 7 7 7 7 6 6 7 7 9 9 10 10 11 11 15 15 16 17 16 15 15 16 14 15 15 15 14 14 13 13 12 12 13 13 12 12 12
4 5 5 5 4 3 4 3 3 3 3 3 2 0 1 2 3 3 3 3 2 1 2 1 0 0 2 2 1 0 2 1 0 1 3 2 3 3 4 2 2 2 2 2 2 1 2 5 6 6 7 7 7 6 6 7 7 7 9 12 14 13 15 15 16 17 18 18 18 17 16 16 16 16 16 15 14 14 14 13 13 13 13 13 13
4 5 5 4 5 5 5 5 5 5 5 4 3 3 3 2 2 3 2 1 3 2 2 2 1 1 1 0 1 1 1 1 1 1 2 0 1 2 3 2 1 3 2 2 2 2 3 2 1 4 5 6 7 6 6 6 7 7 7 9 15 15 14 14 16 17 16 17 18 18 17 17 16 15 15 14 15 15 15 15 14 14 14 14 14
4 4 5 5 5 6 6 5 5 5 4 5 5 4 4 3 3 4 3 3 3 2 2 1 2 1 2 3 3 1 1 1 1 1 1 2 3 2 1 1 1 1 3 3 2 2 1 3 2 1 1 5 6 6 6 6 8 9 11 11 13 15 15 15 14 14 16 16 17 18 17 17 16 15 14 15 16 16 16 16 15 15 15 15 15
5 4 4 5 6 6 6 5 6 4 4 5 4 3 5 5 5 4 5 4 3 4 2 1 2 1 3 4 3 3 4 5 2 1 2 1 1 3 1 3 2 0 1 2 4 4 3 3 2 1 3 3 2 1 1 2 3 6 8 13 13 14 15 15 15 15 15 15 16 17 17 16 16 16 16 16 16 16 17 17 17 16 16 15 15
4 4 4 5 5 5 5 5 5 4 4 5 4 5 5 4 5 6 6 5 4 3 3 0 2 1 2 3 4 3 3 3 2 2 2 1 0 1 3 4 2 2 2 1 1 2 2 3 4 3 4 4 4 3 3 3 4 9 6 9 12 13 13 14 14 15 15 15 13 15 17 19 20 19 17 15 16 16 16 17 17 17 17 15 16
4 4 4 5 5 5 5 5 4 4 4 4 4 5 4 5 4 4 4 6 3 4 4 3 3 2 2 3 2 2 3 3 4 3 2 2 2 1 1 3 3 3 2 2 2 1 1 2 4 6 2 2 0 2 3 3 5 7 9 10 11 11 11 13 14 13 14 15 14 16 17 16 16 16 17 17 17 17 17 18 18 19 19 17 17
4 4 4 4 5 4 5 4 4 3 4 4 4 4 4 4 4 5 5 5 4 5 4 3 4 5 4 4 4 3 2 1 1 2 2 1 2 3 2 2 1 3 4 3 2 2 2 4 4 2 3 3 5 5 5 5 6 7 9 9 9 8 8 8 10 12 13 14 15 14 5 9 14 15 15 15 17 18 18 19 20 20 20 19 19
3 4 4 4 4 4 4 4 4 4 4 4 4 4 4 4 4 5 4 4 4 5 5 5 5 6 4 4 4 3 4 3 1 2 4 1 3 0 2 3 2 1 3 6 4 6 4 4 1 2 2 1 1 5 5 4 4 6 6 9 10 7 6 6 7 9 10 9 9 1 7 13 15 17 16 17 16 17 18 20 21 21 20 21 21
3 4 3 4 4 5 4 5 4 4 4 4 4 4 4 4 4 4 4 5 4 4 6 3 4 6 5 3 4 5 4 1 3 4 3 4 4 2 1 1 1 2 3 3 3 3 6 6 5 3 4 5 5 4 2 4 4 7 8 4 4 3 4 6 7 7 8 8 6 8 12 14 17 15 14 13 12 14 16 18 16 17 18 16 17
5 5 4 4 4 4 4 4 3 4 4 4 4 4 4 5 4 4 4 2 4 4 4 4 4 3 3 6 4 5 3 3 3 4 3 3 3 2 0 2 1 2 2 4 3 4 4 3 4 5 7 7 7 8 7 4 4 7 6 3 3 4 4 4 6 7 7 7 7 6 9 9 9 8 9 9 8 9 10 12 15 14 14 17 18
6 6 4 4 4 4 4 4 4 4 4 4 4 4 4 4 4 4 3 3 4 4 4 4 5 4 4 4 4 4 3 3 4 4 4 3 3 1 1 2 1 4 3 2 2 5 2 2 3 7 7 7 7 7 6 5 4 8 8 6 4 4 4 4 5 6 6 7 7 6 5 6 7 8 8 8 9 8 7 8 10 15 15 16 15
4 4 4 4 5 5 4 4 4 4 3 4 4 4 4 5 4 4 3 1 3 4 2 4 4 4 4 3 5 2 1 3 3 3 4 3 3 3 4 4 4 1 3 3 4 2 2 3 2 5 7 7 6 6 7 7 5 6 4 4 4 4 6 7 8 8 7 7 7 7 7 8 8 8 8 9 9 9 9 9 9 10 13 16 17
6 4 5 4 5 5 5 4 4 4 3 3 4 4 4 4 4 3 4 2 3 2 2 4 3 3 3 3 4 3 2 2 2 3 3 3 3 3 2 4 4 5 1 2 2 1 3 3 3 3 5 5 6 6 6 6 6 7 5 5 5 4 5 7 7 7 7 7 7 7 9 9 10 10 10 10 10 10 10 10 10 10 10 13 16
6 5 5 6 5 6 6 4 4 4 4 3 4 4 3 3 3 3 2 3 2 1 1 1 2 3 3 3 2 3 1 2 2 2 3 3 3 4 3 3 5 5 2 2 1 2 2 3 1 2 4 6 5 5 4 5 7 7 5 5 5 4 5 5 5 5 7 7 7 8 9 10 10 11 10 10 10 10 11 10 11 11 11 11 13
5 5 5 5 6 5 6 6 5 5 4 3 3 4 4 4 2 2 2 3 4 2 0 1 1 2 3 2 1 2 0 0 1 2 2 3 3 3 3 3 3 4 3 2 1 2 1 2 1 1 2 3 4 3 4 4 5 6 5 5 4 7 7 5 6 6 6 7 8 8 8 9 10 10 10 11 12 13 13 12 12 12 11 11 12
7 7 7 6 6 7 6 8 7 6 6 5 4 4 3 4 4 3 3 3 3 2 1 0 0 2 2 2 1 1 1 3 3 3 3 2 2 4 4 3 3 2 3 2 0 4 2 2 2 3 3 3 4 4 4 4 5 6 4 4 4 6 4 4 5 8 8 8 8 8 8 8 8 10 11 12 12 13 13 13 12 12 11 11 11
7 8 7 8 8 8 7 6 7 6 6 6 5 6 5 4 4 4 4 4 4 2 2 1 0 2 3 2 0 0 1 3 2 2 4 4 3 3 2 3 5 3 2 1 1 5 4 1 2 3 4 2 3 3 5 5 5 6 6 4 4 4 4 3 4 6 8 9 9 7 6 7 7 7 9 9 10 11 11 11 11 11 11 12 12
7 8 8 7 7 6 6 7 6 5 5 5 5 5 6 6 5 4 5 5 5 4 3 4 2 2 2 3 1 1 1 3 2 3 3 4 4 5 5 5 6 6 3 3 1 0 5 5 5 5 5 5 6 4 7 9 9 7 8 7 5 4 5 5 6 5 8 9 9 8 6 5 6 7 8 8 8 9 9 9 9 9 10 11 11
5 6 6 6 6 5 4 4 5 5 6 6 6 6 6 5 5 4 5 5 5 4 4 5 4 3 3 2 3 2 0 2 1 2 4 3 3 5 5 4 4 4 4 3 4 3 4 5 2 5 5 5 4 7 7 6 6 7 8 8 7 7 6 6 7 6 8 10 9 8 5 3 3 4 4 5 7 8 9 9 9 9 9 10 10
6 4 4 5 5 6 6 4 5 5 4 4 4 4 6 6 5 5 5 5 5 5 6 6 5 4 5 4 3 4 2 2 1 2 3 3 4 3 4 3 4 5 4 4 4 2 1 4 5 4 3 6 4 4 6 6 7 8 6 7 7 7 7 8 7 7 9 12 8 4 4 5 7 7 7 8 8 8 8 8 9 9 9 9 10
6 7 5 5 5 5 6 6 5 5 5 5 5 5 5 5 5 5 5 6 7 7 7 7 7 7 6 6 5 5 4 4 1 1 2 4 3 4 4 4 4 3 4 5 4 3 3 4 5 3 4 3 3 4 5 7 8 6 6 7 7 6 7 6 6 8 12 14 13 13 13 13 13 13 12 11 10 10 9 9 9 9 9 9 10
6 7 8 6 7 6 5 5 5 5 6 7 7 6 5 4 5 5 5 5 7 7 6 5 6 6 7 6 6 6 5 5 4 2 2 3 3 3 4 4 3 3 4 4 3 3 4 3 4 6 3 5 6 3 5 7 6 6 7 6 6 7 9 10 9 7 6 6 6 8 10 12 14 15 17 15 13 10 9 9 9 9 9 9 9
4 4 4 5 3 4 4 5 5 6 6 6 6 6 6 6 5 4 5 5 5 4 4 6 5 6 7 6 6 6 7 6 5 5 5 3 4 4 3 3 3 4 4 4 4 5 3 4 2 0 4 3 3 6 6 5 4 3 7 9 9 5 5 6 9 7 5 6 6 9 9 9 10 10 13 15 14 12 11 11 10 10 9 9 9
4 5 6 6 5 5 4 5 4 5 5 4 5 6 6 5 5 5 6 6 5 4 5 6 5 6 7 7 6 7 7 7 7 6 6 5 4 4 2 3 3 3 3 3 4 4 4 4 2 4 3 3 6 2 3 5 7 5 5 3 8 9 8 5 3 7 4 5 7 8 8 10 11 12 13 12 12 13 12 9 9 8 8 8 8
2 2 2 3 4 4 4 5 6 5 6 6 5 6 6 5 5 6 6 7 7 7 6 6 6 6 6 6 6 7 8 9 11 9 8 8 5 5 2 2 2 2 1 2 2 3 4 3 5 3 4 6 4 6 8 6 6 6 6 3 4 5 7 9 7 3 1 4 4 5 7 7 8 8 7 8 8 11 11 12 9 9 9 9 9
1 2 2 2 2 3 3 3 3 4 5 5 6 10 8 6 6 6 6 6 6 7 7 7 6 6 8 7 7 12 13 13 13 14 14 13 10 7 5 4 2 1 1 1 2 2 2 4 4 4 7 7 6 4 4 4 4 5 6 5 7 7 7 8 8 1 2 4 7 7 6 5 7 8 7 8 7 7 7 8 9 11 14 17 16
2 2 3 3 3 2 3 3 4 4 5 5 10 11 12 12 7 6 6 6 5 6 7 7 7 7 6 7 7 10 11 8 8 11 10 10 9 9 9 8 6 1 1 1 3 1 1 2 2 3 3 6 7 5 4 7 5 5 4 6 7 8 7 8 10 8 1 6 6 7 8 3 3 6 7 7 8 8 7 7 12 14 15 15 17
2 2 3 3 3 2 2 3 4 5 6 8 12 12 13 13 10 7 5 4 4 5 6 6 6 7 7 7 6 5 6 8 7 7 7 8 8 7 6 5 6 5 4 3 3 2 1 2 4 4 3 5 6 5 5 4 6 5 5 6 5 6 8 9 7 8 5 6 7 9 12 4 2 5 6 5 5 6 8 12 16 15 15 14 15
0 1 3 2 3 2 2 3 5 6 6 9 11 13 13 12 12 8 4 5 5 5 4 6 5 5 6 6 6 4 4 9 6 5 5 4 5 7 7 5 5 6 6 4 4 4 2 2 3 4 3 3 4 4 3 5 4 6 6 6 5 5 5 7 8 8 7 3 6 9 11 8 5 3 6 5 5 5 8 10 13 14 14 15 16
0 1 1 2 2 2 3 4 5 6 6 11 11 11 12 12 10 8 6 5 5 6 7 6 6 7 6 7 6 5 3 4 5 6 4 4 3 3 3 2 2 2 3 5 6 7 5 4 3 4 3 1 3 3 4 3 3 5 5 6 5 6 7 8 8 9 9 5 7 5 9 7 3 5 7 7 6 6 6 8 11 13 15 15 15
2 2 2 2 2 2 2 3 4 5 7 8 11 11 8 5 10 9 5 4 5 5 5 4 4 5 5 5 5 5 3 3 3 5 4 3 3 3 3 2 2 2 2 2 1 1 2 3 3 3 3 2 2 3 3 3 3 3 4 5 5 7 8 8 7 6 7 4 5 3 9 6 4 5 6 7 7 6 4 7 14 14 12 11 12
2 2 2 2 1 0 1 1 2 4 3 7 8 8 7 8 9 6 4 3 3 3 3 4 4 4 5 6 7 5 4 4 5 9 6 4 4 3 3 2 1 2 2 4 6 6 4 3 2 1 1 2 4 3 4 5 5 4 5 4 4 5 7 9 10 7 7 3 4 5 7 6 2 8 9 5 5 6 7 6 9 8 7 9 9
2 4 2 3 2 3 3 2 1 0 2 7 8 3 5 7 7 5 5 5 5 5 4 4 5 5 4 5 6 6 4 4 6 8 7 6 3 3 3 3 3 3 3 2 3 3 4 3 2 1 3 5 7 8 8 9 6 5 5 6 6 4 7 10 11 7 8 3 2 3 7 10 3 5 7 5 5 5 5 6 4 4 8 8 8
2 1 2 3 4 4 3 3 1 1 2 6 7 2 2 5 6 6 6 7 6 6 6 5 6 6 8 11 6 6 6 5 8 11 10 8 6 4 4 3 3 3 4 2 3 3 6 7 8 8 8 8 9 10 10 10 10 7 4 7 5 4 8 6 10 8 8 5 6 7 6 6 3 3 5 4 4 3 4 3 3 4 8 8 7
2 3 3 5 3 4 3 3 5 4 3 5 6 5 5 5 5 4 6 7 7 5 6 6 6 6 6 9 12 9 8 8 11 11 11 8 5 4 3 2 1 3 5 2 2 4 5 5 5 5 6 7 6 5 6 11 12 10 5 6 6 5 7 7 7 8 9 3 3 0 4 5 4 3 4 6 6 4 3 1 4 3 4 5 5
Wind_Direction
107 133 124 119 143 211 199 173 164 171 175 170 119 134 150 199 219 241 289 328 300 291 300 289 286 254 225 224 229 150 174 158 168 163 163 168 172 182 184 182 179 181 180 179 178 183 190 195 188 187 181 182 169 175 168 160 159 164 160 150 144 134 132 131 131 130 128 125 125 124 124 121 113 111 112 112 107 103 100 100 96 94 94 88 88
138 149 154 162 168 184 188 165 158 168 160 118 112 131 158 197 208 213 212 180 242 283 320 294 289 279 221 243 213 164 168 160 171 164 168 165 170 181 189 188 186 183 179 181 186 185 187 189 193 191 190 186 182 176 179 175 164 179 173 156 148 143 138 137 137 137 134 133 128 129 128 128 125 122 116 116 114 112 107 104 104 103 100 99 97
146 162 166 159 159 229 262 144 143 165 141 118 120 135 156 188 197 228 216 140 199 276 293 303 318 334 322 216 233 141 167 163 167 161 166 175 171 179 194 193 190 186 177 179 190 186 192 195 192 196 195 193 192 182 178 183 181 176 169 162 154 153 145 144 143 142 139 137 135 133 133 130 129 126 124 121 121 120 117 112 108 108 108 104 102
133 142 135 116 102 188 332 73 145 129 105 118 121 131 143 190 229 227 224 144 244 257 277 289 313 333 351 14 53 103 209 186 166 170 171 175 177 181 183 190 197 189 179 180 190 187 189 197 195 194 195 198 197 191 185 185 189 189 164 160 164 157 154 152 150 147 147 145 142 139 139 137 133 134 131 127 123 122 122 121 118 114 111 108 107
95 78 98 82 96 49 67 100 99 102 75 94 99 92 63 360 288 238 285 13 331 310 287 93 311 350 15 14 20 65 134 177 191 174 175 176 179 181 180 184 194 194 185 182 192 188 189 198 196 195 194 198 200 196 195 189 188 199 165 159 167 169 160 162 158 156 154 154 150 149 145 143 141 136 135 135 134 129 125 126 123 120 118 114 108
131 104 100 114 163 181 168 127 129 115 113 107 110 118 106 34 350 6 301 2 305 284 301 336 3 350 36 38 41 46 48 58 165 187 206 200 181 178 179 178 183 197 198 191 191 190 196 194 196 199 193 200 200 200 199 196 195 196 195 174 175 180 179 167 168 163 159 159 160 158 154 150 150 145 142 139 136 133 133 127 127 123 123 122 114
137 132 140 140 139 128 119 109 105 107 108 144 132 88 110 130 84 353 306 295 283 303 320 86 98 48 36 69 48 64 64 36 34 155 176 181 181 204 184 176 178 191 201 195 193 193 194 191 192 204 192 198 201 200 203 201 198 203 202 196 183 192 187 176 170 170 165 166 167 164 159 159 156 154 148 145 141 140 135 134 132 132 128 127 126
154 148 153 168 157 158 135 138 137 126 134 182 120 131 86 360 9 99 353 299 188 348 17 80 95 98 58 62 88 80 87 58 28 58 151 159 159 156 155 164 200 208 197 198 194 197 194 188 190 199 187 199 202 203 205 203 201 202 207 202 184 189 198 184 174 177 175 172 171 171 168 166 162 159 156 153 151 147 145 142 140 140 138 137 138
166 156 152 168 175 169 161 155 166 150 153 173 172 160 146 146 312 333 215 223 243 174 28 46 91 78 56 77 39 58 69 76 33 30 59 140 159 155 162 163 180 219 228 223 242 216 199 195 190 193 189 193 203 211 209 207 205 204 206 207 191 192 197 202 189 184 180 175 178 178 175 169 167 166 163 158 157 155 153 153 151 149 150 148 148
175 157 162 187 175 155 145 153 161 169 144 139 147 132 139 180 219 144 67 133 170 121 61 39 37 91 58 66 67 69 84 90 73 16 44 61 114 174 188 182 175 194 191 189 208 230 224 203 197 195 195 195 199 211 215 215 210 207 205 206 203 195 195 201 197 200 184 179 182 185 181 170 172 176 170 167 166 163 162 161 160 159 157 160 155
191 184 180 186 158 133 144 155 153 167 157 149 143 155 182 232 199 170 110 192 160 162 145 127 76 28 32 360 96 117 84 70 92 71 43 40 29 358 206 195 192 196 197 185 185 196 222 223 209 199 202 201 203 207 217 222 217 211 209 207 207 204 198 201 198 202 200 189 187 186 184 179 178 183 180 177 173 172 173 170 169 169 167 164 164
204 190 189 162 139 148 155 161 168 173 167 149 150 160 170 193 209 174 139 56 54 339 74 112 100 92 54 312 286 228 145 97 28 99 81 60 60 11 335 217 206 207 205 201 188 188 194 208 220 215 204 210 209 208 216 220 222 205 208 209 209 207 205 203 201 201 204 205 198 192 185 187 184 186 189 184 180 179 179 177 175 175 172 172 171
190 192 190 164 143 154 154 164 168 172 164 163 167 179 181 183 184 146 157 143 122 147 306 101 108 119 15 7 338 305 36 112 175 261 123 123 74 10 283 286 211 211 213 207 200 192 187 190 204 216 216 203 214 214 212 216 214 203 207 210 210 208 208 207 205 202 204 208 205 198 190 191 189 191 192 191 187 185 183 182 182 181 178 180 178
141 174 158 152 146 151 140 159 174 175 176 138 156 152 160 157 141 102 49 118 119 140 276 62 38 175 54 328 336 329 7 52 231 246 175 163 145 117 360 320 303 230 227 204 208 196 196 193 192 204 206 205 204 213 220 222 217 209 208 215 211 213 213 209 207 206 205 210 209 206 196 194 193 194 195 197 194 192 188 187 188 187 184 184 184
69 89 109 130 135 126 136 145 158 146 85 68 96 109 136 150 156 140 110 59 54 310 165 79 145 106 111 69 334 9 328 358 257 155 157 132 145 146 178 243 78 326 266 208 195 201 204 196 196 199 198 204 194 195 209 222 230 222 217 219 218 219 224 216 210 209 207 209 214 209 197 199 197 196 197 200 200 196 195 193 193 194 191 188 188
47 64 78 93 118 130 131 115 118 109 120 98 76 92 115 130 122 118 128 129 171 197 147 146 130 118 79 111 212 134 333 308 312 313 28 141 156 135 148 108 61 37 345 113 200 198 200 188 199 199 203 205 203 196 203 210 217 219 225 223 224 228 231 230 216 211 209 208 212 213 199 199 201 199 201 202 202 201 201 200 198 198 199 194 192
72 73 73 71 67 67 60 61 81 89 96 96 77 71 141 167 139 132 144 147 156 139 82 137 149 87 137 91 15 20 216 239 27 317 3 17 10 64 78 76 61 74 99 37 52 127 206 198 197 195 202 204 206 206 207 207 205 213 214 219 221 223 226 233 233 223 217 209 209 214 210 202 202 201 202 203 203 202 204 205 201 201 202 201 200
64 71 71 76 71 71 70 72 74 69 75 83 79 50 33 67 105 138 140 123 135 103 103 62 131 117 137 160 164 176 217 253 89 257 320 139 335 57 80 57 23 100 100 89 48 47 42 356 273 223 206 205 205 205 207 205 207 206 210 215 216 219 221 228 235 237 232 226 223 215 216 211 207 204 203 203 202 201 202 205 208 207 203 205 206
59 69 71 70 77 80 80 75 68 64 64 72 61 52 46 43 48 60 81 107 89 92 91 75 23 3 20 28 45 25 103 118 213 80 13 321 5 344 344 55 51 96 127 120 163 70 25 57 12 345 249 219 211 208 204 208 207 208 210 213 214 218 220 222 230 239 243 236 225 227 226 226 212 208 206 204 202 201 201 203 207 209 209 207 209
83 67 70 71 80 80 84 82 79 72 72 70 76 57 58 44 55 61 56 59 92 111 109 88 112 326 36 28 30 19 20 44 72 151 163 134 323 324 301 324 359 130 152 168 156 165 141 120 170 259 339 350 340 270 233 260 249 219 215 217 215 216 220 223 226 232 239 244 242 225 219 229 233 218 210 204 204 201 202 203 207 210 211 210 215
80 83 68 73 75 85 85 88 84 80 87 81 69 71 80 77 57 57 65 57 69 111 105 150 119 109 85 42 44 33 14 34 23 39 93 94 294 5 320 326 351 332 278 216 214 211 196 190 185 108 18 5 341 346 70 80 319 304 273 227 221 222 224 226 229 232 235 240 238 234 223 216 223 225 216 205 203 202 205 206 210 210 212 216 215
61 76 78 78 83 81 84 91 102 98 86 87 77 67 60 61 62 76 75 76 54 74 89 81 83 90 124 149 89 24 18 12 19 17 26 72 130 28 321 1 354 294 325 308 299 321 337 339 25 38 321 305 135 295 289 206 183 234 258 243 227 229 232 230 232 234 236 237 236 235 231 228 231 231 230 217 207 208 207 208 213 212 215 215 212
87 68 86 87 81 83 88 88 85 85 87 86 86 86 72 74 70 63 63 82 79 79 67 55 73 75 72 93 120 131 153 120 79 58 106 71 39 357 332 335 261 326 324 325 312 320 337 32 46 132 178 222 239 223 218 235 223 236 250 250 236 229 230 225 226 229 234 236 237 240 271 281 263 250 237 223 226 213 210 212 214 215 217 218 216
104 102 88 84 84 80 85 86 91 97 96 102 97 93 86 79 64 68 66 66 71 72 69 70 72 73 62 67 78 84 71 112 158 114 109 129 121 143 341 329 352 321 297 347 15 19 13 84 73 58 39 357 274 245 251 236 243 248 236 245 242 238 242 250 241 245 247 245 246 171 248 253 262 259 251 242 233 235 234 227 221 219 218 219 217
140 122 136 111 107 93 86 93 85 89 102 96 100 96 90 79 76 63 61 60 65 79 78 82 91 95 99 71 90 76 66 35 101 107 70 101 113 83 312 36 26 324 321 16 355 2 41 66 52 39 44 35 23 3 273 232 222 222 219 221 223 229 254 258 267 264 256 253 262 180 225 242 251 258 267 265 263 262 253 244 239 217 216 225 224
161 158 174 143 114 123 112 104 107 105 105 112 107 108 106 100 90 85 80 89 77 79 94 91 79 97 115 85 68 81 74 82 111 99 118 85 63 85 39 358 52 360 315 10 335 40 360 30 25 28 32 27 15 14 17 37 65 39 48 37 317 313 329 317 307 302 292 276 255 219 219 238 258 271 275 279 263 243 259 254 240 240 227 221 221
170 181 171 153 142 132 132 120 106 95 95 87 104 108 109 104 105 112 106 92 81 77 66 80 78 89 80 101 101 72 88 87 90 97 107 107 141 169 119 107 357 15 14 336 327 58 5 300 23 29 32 20 17 16 22 23 38 50 26 11 351 317 289 271 259 260 274 284 291 288 263 250 254 259 265 268 269 265 248 245 241 239 227 231 233
182 162 186 150 146 143 138 137 131 114 93 96 104 114 116 111 107 110 106 105 91 78 65 75 70 74 94 85 78 71 77 89 88 102 85 116 112 111 109 94 116 12 347 2 351 341 356 15 327 33 26 18 7 6 9 22 25 13 37 26 5 3 2 346 318 305 294 281 274 274 280 283 281 278 277 275 271 268 266 260 253 244 237 230 223
176 176 174 154 150 149 147 149 148 138 113 105 110 120 120 116 118 106 106 92 103 110 78 85 59 81 81 91 117 110 54 37 51 77 107 93 93 99 116 127 140 117 45 19 311 342 318 356 24 318 21 9 5 360 7 7 3 10 7 1 3 358 1 348 333 313 302 293 277 262 256 256 258 263 263 265 268 268 265 262 254 245 240 239 239
180 182 172 162 160 159 150 154 154 148 153 129 123 133 124 120 140 150 146 130 106 56 41 97 75 85 88 60 57 85 342 51 28 4 42 79 80 80 85 111 123 120 161 87 295 227 264 308 51 338 339 357 2 353 8 352 355 5 359 350 342 342 330 317 296 283 280 279 274 274 273 270 270 269 269 271 273 273 270 264 258 255 249 244 244
181 174 176 171 168 168 160 162 162 166 164 144 136 134 150 137 134 145 131 128 130 127 27 108 141 101 79 82 51 72 20 28 348 356 358 19 34 85 73 74 58 113 130 127 49 287 196 323 289 296 302 325 346 353 355 349 347 354 350 342 330 326 315 299 293 279 266 261 260 264 268 270 276 284 285 281 277 275 273 268 261 257 254 251 250
185 179 178 178 178 177 179 171 175 170 173 167 163 146 150 162 157 162 178 140 136 140 169 310 148 98 100 90 88 86 46 50 24 8 337 340 22 4 18 42 68 92 112 107 132 276 265 226 272 291 324 324 324 3 346 339 336 336 336 326 315 316 311 303 300 296 289 280 270 262 269 281 277 272 273 276 278 277 275 273 268 260 254 250 246
182 182 182 184 185 185 182 182 177 180 175 173 176 155 159 165 171 175 178 163 164 177 163 207 95 122 114 119 326 329 44 72 54 24 23 3 6 3 24 34 8 10 40 96 338 299 304 254 295 331 315 356 345 1 346 338 332 332 332 324 324 324 307 300 305 309 310 307 304 308 297 280 283 290 289 287 287 285 280 275 270 268 264 254 248
184 183 188 189 191 188 182 184 183 178 185 180 183 170 173 172 180 175 180 176 177 184 163 201 197 194 146 158 226 308 360 93 52 39 34 36 11 25 26 32 30 16 24 44 320 352 310 330 348 337 342 6 345 351 355 344 337 338 337 333 329 327 323 326 329 316 309 310 314 322 338 338 316 303 296 296 298 296 291 284 272 259 255 261 261
191 190 188 186 187 185 193 186 180 181 190 193 188 183 183 186 182 186 183 181 181 187 182 203 206 189 160 169 213 200 302 66 19 14 39 38 62 69 53 45 57 34 24 41 48 1 334 312 316 346 348 348 353 336 342 337 331 333 333 333 335 336 338 338 339 329 328 333 338 351 346 326 299 299 304 306 298 292 292 287 280 268 259 253 252
162 166 164 174 179 179 177 167 171 180 186 206 211 206 192 187 188 186 189 192 193 190 192 196 198 185 182 169 193 168 140 127 30 30 27 68 67 77 71 49 58 38 30 36 41 21 317 344 317 337 333 347 330 341 335 343 346 339 340 336 346 352 354 357 353 351 341 339 347 343 322 320 328 331 327 319 309 300 294 291 287 281 273 265 260
155 157 171 164 164 174 182 174 166 170 180 182 197 212 209 196 194 195 192 196 199 199 197 195 190 187 184 181 180 164 156 151 211 72 58 59 50 61 60 43 52 36 36 37 29 43 28 345 308 293 332 328 318 333 2 3 346 345 356 358 348 352 358 354 355 350 345 344 344 346 348 351 352 348 343 336 328 318 310 305 301 294 285 277 272
158 155 162 178 177 186 189 177 173 169 179 188 194 204 207 198 199 204 209 210 209 205 200 199 193 189 189 190 174 169 164 165 187 145 135 127 98 73 62 46 37 39 34 27 35 36 24 341 324 316 353 360 343 343 2 359 349 345 349 343 345 3 2 352 349 347 345 354 360 358 0 2 358 358 358 351 346 341 331 321 312 306 298 289 281
170 150 166 168 196 181 187 184 185 188 196 195 191 194 202 207 206 204 218 229 230 222 210 203 200 193 194 192 177 172 172 177 164 160 150 128 120 109 104 92 50 47 27 18 17 16 17 353 310 360 320 329 28 334 341 340 339 22 358 345 339 349 359 354 335 337 346 350 359 3 2 357 356 359 353 350 347 349 343 333 325 318 314 310 300
141 155 169 176 191 188 193 196 199 195 204 212 209 207 212 211 201 211 214 222 221 226 227 218 201 193 195 195 182 179 175 179 167 167 149 143 130 116 136 95 83 77 54 26 22 13 2 353 344 322 332 313 341 295 300 345 354 355 25 353 325 330 335 333 313 317 327 354 350 347 350 354 352 349 349 344 343 346 344 341 328 317 314 311 303
182 179 175 174 160 184 197 192 195 194 200 212 212 210 215 220 208 218 216 214 211 215 221 221 209 195 192 192 186 183 183 179 168 158 160 155 147 140 159 129 122 101 79 56 33 13 350 355 327 326 325 328 328 342 339 355 360 316 315 353 304 314 319 322 320 277 22 347 335 339 342 349 337 337 331 327 329 334 328 329 320 309 305 306 307
259 258 252 254 218 199 203 218 202 199 206 214 221 222 220 220 221 220 218 219 212 208 211 213 208 202 193 184 190 183 180 173 167 161 157 156 151 143 156 156 141 113 76 8 346 355 348 328 308 329 334 318 320 327 313 302 305 308 321 336 327 317 324 314 307 271 5 12 346 336 330 335 336 321 328 319 313 317 307 315 313 313 316 318 316
222 221 211 228 235 224 220 221 223 219 220 220 222 221 223 221 219 224 220 225 213 207 205 203 200 197 195 187 184 182 172 161 150 148 149 140 136 140 145 155 159 155 183 276 281 220 251 272 291 335 305 300 306 311 303 305 311 308 301 321 321 323 326 332 318 320 101 20 338 322 311 313 306 304 306 305 309 312 308 299 297 302 306 308 311
217 196 216 236 243 227 209 225 239 237 229 222 215 220 222 222 220 220 217 216 206 202 200 198 202 189 180 180 180 165 162 159 153 151 145 141 140 152 158 126 105 112 146 175 230 266 228 289 309 292 290 286 290 308 306 314 313 325 319 319 312 313 314 309 296 289 298 11 337 321 305 315 256 278 291 287 287 288 292 293 296 297 299 301 302
127 174 228 233 248 234 214 234 250 258 260 245 220 219 220 218 220 222 223 224 218 211 182 187 192 195 185 171 161 158 154 152 141 142 142 145 146 121 114 132 152 168 177 186 190 206 196 211 238 270 261 274 296 289 316 333 337 317 320 316 314 304 287 287 287 298 303 347 326 306 298 309 315 287 295 293 281 278 283 284 288 296 303 303 300
19 277 287 253 257 230 222 228 243 253 256 267 256 236 226 213 201 199 225 217 206 195 198 195 194 194 183 164 154 146 139 142 146 145 138 124 124 121 120 138 154 166 179 193 197 209 199 196 203 241 261 237 283 303 313 329 337 315 317 305 317 309 301 283 285 286 289 304 287 289 289 302 292 309 300 298 289 281 275 286 297 299 295 303 315
167 189 235 281 312 309 263 228 233 248 258 299 304 286 280 222 197 195 217 214 203 204 207 189 176 156 145 134 115 122 123 138 152 146 131 128 131 147 148 144 150 163 163 160 167 164 170 194 202 227 273 293 256 271 284 298 274 267 263 272 282 284 285 288 282 257 277 251 256 269 283 303 303 300 287 291 299 288 278 291 285 290 308 324 329
2 38 55 115 117 314 295 276 230 268 296 343 336 314 244 204 180 175 168 155 138 118 113 130 131 130 124 127 138 141 141 138 146 136 146 151 156 151 139 109 36 18 25 43 70 83 88 112 135 165 232 255 274 276 280 284 284 275 281 282 291 291 298 302 294 307 289 272 254 263 281 280 272 294 296 286 285 291 292 285 293 315 331 341 343
359 45 71 69 19 16 14 34 112 21 322 330 334 304 212 182 142 123 112 102 95 93 85 84 95 98 106 127 131 137 122 78 59 66 70 89 79 70 66 59 40 36 354 347 73 86 92 93 117 235 264 276 282 284 284 279 273 280 286 296 291 295 296 296 289 290 285 301 271 247 275 284 265 261 292 288 284 277 280 278 299 309 335 354 358
327 54 124 73 39 30 31 26 39 92 355 336 352 336 196 183 138 128 119 111 105 101 85 57 57 53 38 47 64 77 78 80 79 73 68 76 81 80 75 62 33 4 310 312 341 334 348 350 344 340 337 331 328 328 325 319 315 314 316 297 296 300 284 280 287 295 294 285 265 242 264 258 276 252 283 275 285 263 260 272 298 334 353 344 347
103 103 80 82 55 35 28 40 53 71 35 3 20 69 103 111 101 109 117 115 109 94 94 77 58 57 52 48 64 79 86 90 83 82 82 88 97 107 117 95 29 307 274 288 309 326 334 334 326 335 327 322 316 308 299 299 297 296 276 265 277 270 277 282 285 301 302 268 254 240 282 284 304 251 264 297 289 263 255 236 336 341 326 329 319